GW5236 Weather Reports


Display with metric or nautical units.
time (UTC)temp
F
wind
direction
speed
MPH
gust
MPH
rain 1hr
in
rain 24hr
in
rain mn
in
humidity
%
barometer
mb
20260509055508 54 179 2.0 11.0 0.00 0.03 0.00 90 1009.1
20260509055012 54 264 2.0 11.0 0.00 0.03 0.00 90 1009.1
20260509054523 54 163 3.0 8.0 0.00 0.03 0.00 90 1009.2
20260509054005 54 171 2.0 6.0 0.00 0.03 0.00 90 1009.2
20260509052501 54 167 2.0 7.0 0.00 0.03 0.00 90 1009.3
20260509052000 54 190 2.0 7.0 0.00 0.03 0.00 89 1009.3
20260509051504 54 218 3.0 9.0 0.00 0.03 0.00 89 1009.3
20260509051000 54 182 2.0 9.0 0.00 0.03 0.00 89 1009.3
20260509050504 54 198 2.0 9.0 0.00 0.03 0.00 90 1009.3
20260509050005 53 161 2.0 9.0 0.00 0.03 0.00 90 1009.4
20260509044506 53 194 3.0 7.0 0.00 0.03 0.00 90 1009.5
20260509043508 53 204 2.0 8.0 0.00 0.03 0.00 90 1009.5
20260509043010 53 211 2.0 5.0 0.00 0.03 0.00 90 1009.5
20260509042005 53 199 2.0 5.0 0.01 0.03 0.00 90 1009.6
20260509041001 53 194 2.0 6.0 0.01 0.03 0.00 90 1009.7
20260509040500 53 151 3.0 7.0 0.01 0.03 0.00 90 1009.8
20260509040004 53 205 2.0 7.0 0.01 0.03 0.00 90 1009.9
20260509035508 53 184 4.0 7.0 0.01 0.03 0.03 90 1009.9
20260509034532 53 200 4.0 7.0 0.02 0.03 0.03 90 1010.0
20260509033504 53 173 4.0 7.0 0.02 0.03 0.03 90 1010.1
20260509033011 53 167 3.0 6.0 0.02 0.03 0.03 90 1010.1
20260509032505 53 194 2.0 5.0 0.01 0.02 0.02 91 1010.2
20260509031522 53 157 2.0 4.0 0.01 0.02 0.02 92 1010.3
20260509031004 53 180 1.0 2.0 0.01 0.02 0.02 93 1010.4
20260509025500 53 143 0.0 2.0 0.01 0.02 0.02 93 1010.4
20260509025001 53 143 0.0 2.0 0.00 0.01 0.01 93 1010.5
20260509024505 53 143 0.0 2.0 0.00 0.01 0.01 93 1010.5
20260509024003 53 63 0.0 2.0 0.00 0.01 0.01 93 1010.5
20260509023006 53 63 0.0 2.0 0.00 0.01 0.01 93 1010.7
20260509022505 53 63 0.0 2.0 0.00 0.01 0.01 93 1010.6
20260509021517 53 63 0.0 2.0 0.01 0.01 0.01 93 1010.6
20260509021008 53 63 0.0 2.0 0.01 0.01 0.01 93 1010.4
20260509020509 53 49 0.0 2.0 0.01 0.01 0.01 93 1010.6
20260509020018 53 339 0.0 2.0 0.01 0.01 0.01 93 1010.6
20260509015006 53 339 0.0 2.0 0.01 0.01 0.01 92 1010.6
20260509014506 53 339 0.0 0.0 0.01 0.01 0.01 91 1010.6
20260509014004 53 339 0.0 0.0 0.01 0.01 0.01 91 1010.5
20260509013504 54 339 0.0 0.0 0.01 0.01 0.01 91 1010.5
20260509013010 54 339 0.0 0.0 0.01 0.01 0.01 91 1010.5
20260509012505 54 339 0.0 0.0 0.01 0.01 0.01 90 1010.5
20260509012005 54 339 0.0 0.0 0.01 0.01 0.01 90 1010.4
20260509011512 54 339 0.0 1.0 0.00 0.00 0.00 90 1010.3
20260509011003 54 339 0.0 1.0 0.00 0.00 0.00 90 1010.2
20260509010508 54 339 0.0 1.0 0.00 0.00 0.00 89 1010.3
20260509010020 54 339 0.0 1.0 0.00 0.00 0.00 88 1010.4
20260509005507 54 339 0.0 1.0 0.00 0.00 0.00 88 1010.4
20260509005010 54 339 0.0 2.0 0.00 0.00 0.00 87 1010.3
20260509004528 55 339 0.0 2.0 0.00 0.00 0.00 88 1010.4
20260509003506 55 339 0.0 2.0 0.00 0.00 0.00 87 1010.3
20260509003009 55 339 0.0 2.0 0.00 0.00 0.00 86 1010.3
20260509002505 55 339 0.0 2.0 0.00 0.00 0.00 85 1010.1
20260509002005 55 339 0.0 2.0 0.00 0.00 0.00 85 1009.9
20260509001514 56 339 0.0 0.0 0.00 0.00 0.00 83 1009.9
20260509001003 56 339 0.0 2.0 0.00 0.00 0.00 83 1009.9
20260509000503 56 339 0.0 2.0 0.00 0.00 0.00 83 1009.8
20260509000013 56 339 0.0 2.0 0.00 0.00 0.00 80 1009.8
20260508235507 57 339 0.0 2.0 0.00 0.00 0.00 80 1009.8
20260508235008 57 339 0.0 2.0 0.00 0.00 0.00 78 1009.7
20260508234525 57 339 0.0 2.0 0.00 0.00 0.00 77 1009.6
20260508234007 58 339 0.0 2.0 0.00 0.00 0.00 74 1009.5
20260508232005 59 329 0.0 8.0 0.00 0.00 0.00 67 1009.5
20260508231514 59 329 1.0 8.0 0.00 0.00 0.00 65 1009.4
20260508231004 60 272 2.0 9.0 0.00 0.00 0.00 59 1009.5
20260508230503 60 283 2.0 9.0 0.00 0.00 0.00 59 1009.5
20260508230013 60 260 3.0 8.0 0.00 0.00 0.00 59 1009.7
20260508225504 60 294 3.0 12.0 0.00 0.00 0.00 59 1009.7
20260508225004 60 266 3.0 12.0 0.00 0.00 0.00 59 1009.8
20260508224515 61 167 2.0 8.0 0.00 0.00 0.00 58 1009.8
20260508224011 61 152 1.0 6.0 0.00 0.00 0.00 58 1009.7
20260508223508 61 156 2.0 6.0 0.00 0.00 0.00 58 1009.6
20260508223025 61 228 1.0 5.0 0.00 0.00 0.00 58 1009.6
20260508222513 61 216 1.0 5.0 0.00 0.00 0.00 57 1009.6
20260508221006 62 291 1.0 9.0 0.00 0.00 0.00 56 1009.5
20260508220505 62 147 1.0 7.0 0.00 0.00 0.00 54 1009.5
20260508220010 62 246 2.0 8.0 0.00 0.00 0.00 54 1009.5
20260508215503 63 186 3.0 10.0 0.00 0.00 0.00 52 1009.5
20260508215004 63 142 3.0 10.0 0.00 0.00 0.00 51 1009.5
20260508214531 63 196 3.0 10.0 0.00 0.00 0.00 50 1009.4
20260508214006 64 178 3.0 7.0 0.00 0.00 0.00 49 1009.3
20260508213503 64 319 2.0 13.0 0.00 0.00 0.00 50 1009.3
20260508213019 64 207 5.0 13.0 0.00 0.00 0.00 48 1009.3
20260508212505 64 153 4.0 15.0 0.00 0.00 0.00 50 1009.3
20260508212009 64 186 4.0 15.0 0.00 0.00 0.00 48 1009.3
20260508211524 64 165 4.0 10.0 0.00 0.00 0.00 46 1009.3
20260508211009 64 183 4.0 14.0 0.00 0.00 0.00 47 1009.3
20260508210508 64 221 5.0 14.0 0.00 0.00 0.00 47 1009.3
20260508210025 64 184 5.0 13.0 0.00 0.00 0.00 47 1009.3
20260508205504 64 179 6.0 17.0 0.00 0.00 0.00 47 1009.4
20260508205007 64 186 6.0 22.0 0.00 0.00 0.00 47 1009.4
20260508204519 64 213 9.0 22.0 0.00 0.00 0.00 46 1009.3
20260508204005 65 201 8.0 16.0 0.00 0.00 0.00 46 1009.3
20260508203505 65 271 6.0 13.0 0.00 0.00 0.00 48 1009.5
20260508203020 65 231 4.0 14.0 0.00 0.00 0.00 48 1009.6
20260508202508 65 126 3.0 15.0 0.00 0.00 0.00 51 1009.7
20260508202009 64 195 3.0 15.0 0.00 0.00 0.00 50 1009.7
20260508201521 64 165 5.0 15.0 0.00 0.00 0.00 48 1009.9
20260508201010 64 234 4.0 13.0 0.00 0.00 0.00 48 1009.9
20260508200508 64 190 7.0 13.0 0.00 0.00 0.00 48 1010.0
20260508200023 64 175 5.0 13.0 0.00 0.00 0.00 48 1010.1
20260508195508 64 157 5.0 15.0 0.00 0.00 0.00 50 1010.3
20260508195015 64 185 5.0 15.0 0.00 0.00 0.00 48 1010.3
20260508194510 64 156 6.0 16.0 0.00 0.00 0.00 48 1010.3
20260508194010 64 219 9.0 16.0 0.00 0.00 0.00 47 1010.4
20260508193510 64 163 8.0 18.0 0.00 0.00 0.00 46 1010.5
20260508193028 64 180 7.0 20.0 0.00 0.00 0.00 47 1010.6
20260508192513 64 186 6.0 20.0 0.00 0.00 0.00 47 1010.6
20260508192009 65 184 6.0 14.0 0.00 0.00 0.00 48 1010.6
20260508191532 65 239 3.0 12.0 0.00 0.00 0.00 50 1010.8
20260508191008 64 225 5.0 12.0 0.00 0.00 0.00 50 1010.8
20260508190509 64 225 5.0 12.0 0.00 0.00 0.00 50 1010.8
20260508190046 64 106 3.0 15.0 0.00 0.00 0.00 51 1010.9
20260508185507 64 202 4.0 15.0 0.00 0.00 0.00 49 1010.8
20260508185008 65 153 4.0 11.0 0.00 0.00 0.00 49 1010.9
20260508184533 65 119 4.0 11.0 0.00 0.00 0.00 49 1011.0
20260508184012 66 112 5.0 10.0 0.00 0.00 0.00 49 1011.0
20260508183510 66 268 3.0 12.0 0.00 0.00 0.00 49 1010.8
20260508183036 66 217 5.0 12.0 0.00 0.00 0.00 52 1010.9
20260508182509 66 197 6.0 11.0 0.00 0.00 0.00 48 1010.9
20260508182009 66 255 5.0 19.0 0.00 0.00 0.00 52 1010.9
20260508181527 66 199 4.0 19.0 0.00 0.00 0.00 51 1011.0
20260508181011 66 205 6.0 14.0 0.00 0.00 0.00 52 1011.2
20260508180509 66 77 4.0 11.0 0.00 0.00 0.00 54 1011.4
20260508180026 65 264 5.0 10.0 0.00 0.00 0.00 53 1011.4
20260508175511 64 157 4.0 9.0 0.00 0.00 0.00 52 1011.5
20260508175011 64 198 3.0 9.0 0.00 0.00 0.00 53 1011.6
20260508174534 64 191 3.0 14.0 0.00 0.00 0.00 53 1011.8
20260508174011 64 336 2.0 14.0 0.00 0.00 0.00 53 1011.9
20260508173509 64 248 5.0 12.0 0.00 0.00 0.00 51 1012.0
20260508173025 64 184 4.0 11.0 0.00 0.00 0.00 55 1012.1
20260508172509 63 190 6.0 11.0 0.00 0.00 0.00 54 1012.2
20260508172011 62 238 3.0 10.0 0.00 0.00 0.00 56 1012.4
20260508171525 62 258 4.0 10.0 0.00 0.00 0.00 55 1012.6
20260508171011 62 201 3.0 7.0 0.00 0.00 0.00 57 1012.7
20260508170509 62 188 2.0 8.0 0.00 0.00 0.00 58 1012.7
20260508170034 61 251 3.0 10.0 0.00 0.00 0.00 56 1012.8
20260508165509 61 268 4.0 10.0 0.00 0.00 0.00 57 1013.0
20260508165015 60 252 2.0 9.0 0.00 0.00 0.00 56 1013.1
20260508164536 60 265 2.0 9.0 0.00 0.00 0.00 56 1013.1
20260508164003 60 270 3.0 8.0 0.00 0.00 0.00 56 1013.1
20260508163504 60 149 1.0 11.0 0.00 0.00 0.00 56 1013.1
20260508163014 61 313 5.0 11.0 0.00 0.00 0.00 56 1013.1
20260508162502 61 265 3.0 12.0 0.00 0.00 0.00 56 1013.1
20260508162003 61 322 4.0 12.0 0.00 0.00 0.00 55 1013.1
20260508161519 60 273 3.0 12.0 0.00 0.00 0.00 56 1013.1
20260508161007 61 292 6.0 12.0 0.00 0.00 0.00 55 1013.2
20260508160510 60 252 5.0 10.0 0.00 0.00 0.00 57 1013.2
20260508160021 60 302 4.0 13.0 0.00 0.00 0.00 55 1013.2
20260508155503 60 154 5.0 14.0 0.00 0.00 0.00 56 1013.3
20260508155003 60 265 6.0 16.0 0.00 0.00 0.00 56 1013.3
20260508154506 59 213 7.0 16.0 0.00 0.00 0.00 54 1013.3
20260508154002 59 255 6.0 13.0 0.00 0.00 0.00 55 1013.4
20260508153503 59 286 5.0 13.0 0.00 0.00 0.00 55 1013.4
20260508152507 57 229 2.0 11.0 0.00 0.00 0.00 61 1013.4
20260508152010 57 305 3.0 6.0 0.00 0.00 0.00 63 1013.4
20260508151522 56 221 2.0 7.0 0.00 0.00 0.00 63 1013.4
20260508151007 55 231 2.0 8.0 0.00 0.00 0.00 64 1013.6
20260508150509 55 286 3.0 8.0 0.00 0.00 0.00 62 1013.5
20260508150020 55 171 3.0 6.0 0.00 0.00 0.00 62 1013.5
20260508145508 54 314 2.0 9.0 0.00 0.00 0.00 63 1013.6
20260508145010 54 221 1.0 9.0 0.00 0.00 0.00 64 1013.8
20260508144528 54 205 4.0 11.0 0.00 0.00 0.00 64 1013.8
20260508144003 53 170 3.0 11.0 0.00 0.00 0.00 65 1013.7
20260508143504 53 153 4.0 10.0 0.00 0.00 0.00 66 1013.6
20260508143009 53 200 1.0 9.0 0.00 0.00 0.00 67 1013.7
20260508142504 52 219 2.0 6.0 0.00 0.00 0.00 67 1013.7
20260508142007 52 178 2.0 5.0 0.00 0.00 0.00 68 1013.8
20260508141513 51 188 1.0 6.0 0.00 0.00 0.00 68 1013.9
20260508141007 51 190 2.0 6.0 0.00 0.00 0.00 68 1013.9
20260508140503 51 213 2.0 6.0 0.00 0.00 0.00 69 1013.9
20260508140022 51 189 2.0 6.0 0.00 0.00 0.00 69 1013.9
20260508135507 51 165 1.0 5.0 0.00 0.00 0.00 69 1013.8
20260508135010 51 190 1.0 7.0 0.00 0.00 0.00 69 1013.8
20260508134530 51 194 2.0 7.0 0.00 0.00 0.00 68 1013.8
20260508134010 51 306 1.0 8.0 0.00 0.00 0.00 67 1013.8
20260508133507 51 186 2.0 8.0 0.00 0.00 0.00 68 1013.9
20260508133007 51 296 1.0 7.0 0.00 0.00 0.00 68 1013.9
20260508132505 51 233 1.0 10.0 0.00 0.00 0.00 67 1013.8
20260508132004 51 142 3.0 10.0 0.00 0.00 0.00 66 1013.8
20260508131510 51 10 2.0 6.0 0.00 0.00 0.00 68 1013.7
20260508131004 51 288 2.0 10.0 0.00 0.00 0.00 68 1013.9
20260508130505 51 204 3.0 10.0 0.00 0.00 0.00 67 1013.8
20260508130027 51 197 2.0 5.0 0.00 0.00 0.00 67 1013.8
20260508125508 50 251 2.0 7.0 0.00 0.00 0.00 68 1013.8
20260508125009 50 219 1.0 7.0 0.00 0.00 0.00 69 1013.7
20260508124519 50 216 1.0 7.0 0.00 0.00 0.00 69 1013.6
20260508124010 50 214 3.0 10.0 0.00 0.00 0.00 69 1013.5
20260508123509 50 198 4.0 10.0 0.00 0.00 0.00 70 1013.6
20260508123022 49 291 2.0 9.0 0.00 0.00 0.00 71 1013.7
20260508122513 49 233 2.0 8.0 0.00 0.00 0.00 71 1013.6
20260508122015 49 212 0.0 8.0 0.00 0.00 0.00 71 1013.4
20260508121507 49 228 1.0 6.0 0.00 0.00 0.00 71 1013.3
20260508121004 48 284 2.0 6.0 0.00 0.00 0.00 72 1013.3
20260508120503 48 152 1.0 4.0 0.00 0.00 0.00 72 1013.4
20260508120014 47 165 2.0 3.0 0.00 0.00 0.00 73 1013.4
20260508115505 47 196 0.0 4.0 0.00 0.00 0.00 75 1013.6
20260508115006 47 196 1.0 4.0 0.00 0.00 0.00 74 1013.5
20260508114522 47 199 1.0 4.0 0.00 0.00 0.00 74 1013.5
20260508114008 46 187 1.0 4.0 0.00 0.00 0.00 74 1013.4
20260508113510 46 200 1.0 2.0 0.00 0.00 0.00 74 1013.4
20260508113022 46 215 0.0 2.0 0.00 0.00 0.00 75 1013.2
20260508112508 45 181 0.0 2.0 0.00 0.00 0.00 75 1013.1
20260508112009 45 199 1.0 2.0 0.00 0.00 0.00 75 1013.1
20260508111525 45 203 0.0 3.0 0.00 0.00 0.00 76 1013.1
20260508111011 45 177 0.0 3.0 0.00 0.00 0.00 75 1013.1
20260508110509 44 194 1.0 3.0 0.00 0.00 0.00 75 1013.1
20260508110010 44 209 0.0 2.0 0.00 0.00 0.00 76 1013.1
20260508105505 44 189 0.0 2.0 0.00 0.00 0.00 76 1013.1
20260508105005 44 193 0.0 2.0 0.00 0.00 0.00 76 1013.1
20260508104514 43 193 0.0 2.0 0.00 0.00 0.00 76 1013.1
20260508104001 43 169 1.0 2.0 0.00 0.00 0.00 76 1013.2
20260508103501 43 207 0.0 2.0 0.00 0.00 0.00 76 1013.3
20260508103001 43 207 1.0 2.0 0.00 0.00 0.00 76 1013.2
20260508102501 43 209 0.0 2.0 0.00 0.00 0.00 76 1013.0
20260508102001 43 247 0.0 2.0 0.00 0.00 0.00 76 1013.1
20260508101516 43 171 0.0 2.0 0.00 0.00 0.00 77 1013.0
20260508101001 42 165 1.0 2.0 0.00 0.00 0.00 77 1013.0
20260508100501 42 132 0.0 2.0 0.00 0.00 0.00 78 1013.0
20260508100015 42 132 0.0 2.0 0.00 0.00 0.00 79 1013.0
20260508095509 42 132 0.0 2.0 0.00 0.00 0.00 80 1012.9
20260508095005 42 132 0.0 2.0 0.00 0.00 0.00 80 1012.9
20260508094517 42 132 0.0 2.0 0.00 0.00 0.00 81 1013.0
20260508094008 42 132 0.0 2.0 0.00 0.00 0.00 80 1013.0
20260508093505 42 132 0.0 2.0 0.00 0.00 0.00 80 1012.9
20260508093005 42 132 0.0 2.0 0.00 0.00 0.00 81 1012.9
20260508092501 42 132 0.0 2.0 0.00 0.00 0.00 80 1012.9
20260508092002 42 132 0.0 2.0 0.00 0.00 0.00 80 1013.0
20260508091513 42 132 0.0 2.0 0.00 0.00 0.00 79 1012.9
20260508091004 42 132 0.0 2.0 0.00 0.00 0.00 79 1013.0
20260508090502 42 132 0.0 2.0 0.00 0.00 0.00 80 1013.0
20260508090010 41 132 0.0 2.0 0.00 0.00 0.00 81 1013.0
20260508085005 42 132 0.0 0.0 0.00 0.00 0.00 82 1013.1
20260508084509 42 132 0.0 0.0 0.00 0.00 0.00 81 1013.1
20260508084006 43 132 0.0 1.0 0.00 0.00 0.00 80 1013.1
20260508083015 43 132 0.0 2.0 0.00 0.00 0.00 79 1013.0
20260508082510 43 132 0.0 2.0 0.00 0.00 0.00 80 1013.0
20260508082002 43 132 0.0 2.0 0.00 0.00 0.00 79 1013.0
20260508081509 44 132 0.0 2.0 0.00 0.00 0.00 78 1012.9
20260508081004 43 132 0.0 2.0 0.00 0.00 0.00 78 1013.0
20260508080504 43 132 0.0 2.0 0.00 0.00 0.00 79 1013.0
20260508080007 43 132 0.0 2.0 0.00 0.00 0.00 80 1013.0
20260508075504 43 132 0.0 2.0 0.00 0.00 0.00 81 1013.0
20260508075004 43 132 0.0 2.0 0.00 0.00 0.00 82 1013.1
20260508074514 43 132 0.0 2.0 0.00 0.00 0.00 82 1013.1
20260508074003 43 132 0.0 2.0 0.00 0.00 0.00 82 1013.0
20260508073505 43 132 0.0 2.0 0.00 0.00 0.00 82 1013.0
20260508073014 43 132 0.0 2.0 0.00 0.00 0.00 84 1013.0
20260508072505 43 132 0.0 1.0 0.00 0.00 0.00 87 1013.0
20260508072008 43 132 0.0 1.0 0.00 0.00 0.00 87 1013.1
20260508071519 43 132 0.0 2.0 0.00 0.00 0.00 87 1013.1
20260508070503 44 132 0.0 0.0 0.00 0.00 0.00 85 1013.2
20260508070005 44 132 0.0 2.0 0.00 0.00 0.00 85 1013.3
20260508065502 44 132 0.0 2.0 0.00 0.00 0.00 83 1013.3
20260508065004 44 132 0.0 2.0 0.00 0.00 0.00 84 1013.4
20260508064508 45 132 0.0 2.0 0.00 0.00 0.00 85 1013.4
20260508063505 46 132 0.0 2.0 0.00 0.00 0.00 84 1013.3
20260508063015 46 240 0.0 2.0 0.00 0.00 0.00 83 1013.4
20260508062504 46 240 0.0 2.0 0.00 0.00 0.00 82 1013.4
20260508062006 47 126 1.0 2.0 0.00 0.00 0.00 82 1013.4
20260508061517 47 126 0.0 2.0 0.00 0.00 0.00 81 1013.5
20260508061007 47 126 0.0 3.0 0.00 0.00 0.00 81 1013.6
20260508060510 47 126 2.0 3.0 0.00 0.00 0.00 78 1013.7
20260508060021 47 60 1.0 3.0 0.00 0.00 0.00 77 1013.8